Regional Weather Roundup
Issued by NWS

Home | Current Version | Previous Version | Graphics & Text | Print | Product List | Glossary Off
Versions: 1 2 3 4 5 6 7 8 9 10 11 12 13 14 15 16 17 18 19 20 21 22 23 24 25 26 27 28 29 30 31 32 33 34 35 36 37 38 39 40 41 42 43 44 45 46 47 48 49 50

000
ASUS43 KTOP 211759
RWRKS

WEATHER ROUNDUP FOR KANSAS
NATIONAL WEATHER SERVICE GOODLAND KS
1200 PM CST TUE FEB 21 2017

NOTE:  "FAIR" INDICATES FEW OR NO CLOUDS BELOW 12,000 FEET WITH NO
SIGNIFICANT WEATHER AND/OR OBSTRUCTIONS TO VISIBILITY.

KSZ001>006-013>018-027>032-041>047-211900-
NORTHWEST KANSAS

CITY           SKY/WX    TMP DP  RH WIND       PRES   REMARKS
GOODLAND       SUNNY     71  26  18 N7        30.02F
6HR MIN TEMP:  35; 6HR MAX TEMP:  71;

HAYS           SUNNY     66  32  28 SW14      30.03F
HILL CITY      SUNNY     68  22  17 SW16      30.01F
6HR MIN TEMP:  27; 6HR MAX TEMP:  69;

RUSSELL        SUNNY     67  32  27 SW14      30.01F
6HR MIN TEMP:  27; 6HR MAX TEMP:  68;

$$

KSZ061>065-074>080-084>089-211900-
SOUTHWEST KANSAS

CITY           SKY/WX    TMP DP  RH WIND       PRES   REMARKS
DODGE CITY     SUNNY     67  24  19 SW15      30.05F
6HR MIN TEMP:  30; 6HR MAX TEMP:  67;

ELKHART          N/A     69  29  22 N7          N/A
GARDEN CITY    SUNNY     70  19  14 W14       30.04S
6HR MIN TEMP:  25; 6HR MAX TEMP:  70;

GREAT BEND     SUNNY     67  33  28 W9        30.04F
LIBERAL        SUNNY     68  19  15 SW15G21   30.08F
$$

KSZ066>073-081>083-090>101-211900-
SOUTHEAST KANSAS

CITY           SKY/WX    TMP DP  RH WIND       PRES   REMARKS
CHANUTE        SUNNY     67  51  56 N6        29.98F
6HR MIN TEMP:  44; 6HR MAX TEMP:  67;

COFFEYVILLE    MOSUNNY   65  52  62 N8        29.98F
6HR MIN TEMP:  44; 6HR MAX TEMP:  65;

HUTCHINSON     SUNNY     65  30  27 W7        30.04F
6HR MIN TEMP:  32; 6HR MAX TEMP:  65;

MEDICINE LODGE   N/A     66  28  24 W7        30.04F
NEWTON         SUNNY     61  43  51 NW7       30.04F
PARSONS        PTSUNNY   65  52  62 N7        29.99F
6HR MIN TEMP:  44; 6HR MAX TEMP:  66;

WICHITA INTL   MOSUNNY   62  39  42 N6        30.03S
6HR MIN TEMP:  39; 6HR MAX TEMP:  63;

WICHITA JABRA  SUNNY     63  43  48 N5        30.03S
6HR MIN TEMP:  39; 6HR MAX TEMP:  63;

WINFIELD       SUNNY     64  44  48 N10       30.03F
6HR MIN TEMP:  41; 6HR MAX TEMP:  64;

$$

KSZ007>012-019>026-033>040-048>060-102>105-211900-
NORTHEAST KANSAS

CITY           SKY/WX    TMP DP  RH WIND       PRES   REMARKS
CONCORDIA      SUNNY     66  36  32 SW15      30.00F
6HR MIN TEMP:  37; 6HR MAX TEMP:  66;

EMPORIA        SUNNY     62  45  53 N6        30.00F
6HR MIN TEMP:  39; 6HR MAX TEMP:  62;

LAWRENCE       SUNNY     66  44  45 NW5       29.99F
6HR MIN TEMP:  38; 6HR MAX TEMP:  66;

MANHATTAN      SUNNY     61  44  53 VRB5      30.02F
6HR MIN TEMP:  30; 6HR MAX TEMP:  61;

OLATHE IND     SUNNY     65  49  56 N5        29.99F
6HR MIN TEMP:  39; 6HR MAX TEMP:  65;

OLATHE EXE     SUNNY     64  50  60 N7        29.98F
6HR MIN TEMP:  47; 6HR MAX TEMP:  64;

SALINA         SUNNY     66  37  34 SW5       30.03F
6HR MIN TEMP:  33; 6HR MAX TEMP:  67;

TOPEKA BILLARD SUNNY     61  47  59 VRB5      30.01F
6HR MIN TEMP:  38; 6HR MAX TEMP:  61;

TOPEKA FORBES  SUNNY     63  44  50 NW9       30.01F
6HR MIN TEMP:  37; 6HR MAX TEMP:  63;

$$



USA.gov is the U.S. government's official web portal to all federal, state and local government web resources and services.